Location: Cactus School
(34.5700°N, 118.0931°W)
Time: 08:24:40
(UTC-08:00)

Tiros 1 - Visible Passes

Search period start: 20 November 2019 00:00
Search period end: 30 November 2019 00:00
Orbit: 630 x 664 km, 48.4° (Epoch: 19 November)

Date Brightness Start Highest point End Pass type
(mag) Time Alt. Az. Time Alt. Az. Time Alt. Az.
20 Nov 8.7 17:38:09 10° NNW 17:41:30 19° NNE 17:43:35 15° NE visible
20 Nov 9.3 19:19:46 10° NW 19:21:16 20° NW 19:21:16 20° NW visible
21 Nov 8.1 18:03:57 10° NW 18:08:03 30° NNE 18:08:51 28° NE visible
21 Nov 9.9 19:45:52 10° WNW 19:46:32 14° WNW 19:46:32 14° WNW visible
22 Nov 7.2 18:29:46 10° NW 18:34:16 56° NNE 18:34:16 56° NNE visible
23 Nov 8.2 17:13:58 10° NW 17:17:58 28° NNE 17:22:00 10° E visible
23 Nov 7.6 18:55:49 10° WNW 18:59:53 59° WSW 18:59:53 59° WSW visible
24 Nov 7.3 17:39:46 10° NW 17:44:19 52° NNE 17:48:02 15° ESE visible
24 Nov 9.1 19:22:25 10° WNW 19:25:47 25° WSW 19:25:47 25° WSW visible
25 Nov 7.3 18:05:47 10° WNW 18:10:24 70° SW 18:14:17 15° SE visible
26 Nov 9.0 18:32:18 10° WNW 18:36:16 28° SW 18:40:16 10° SSE visible
27 Nov 7.3 17:15:45 10° NW 17:20:23 77° SW 17:25:02 10° SE visible
27 Nov 10.2 19:00:51 10° WSW 19:01:57 11° SW 19:03:03 10° SW visible
28 Nov 9.1 17:42:12 10° WNW 17:46:17 31° SW 17:50:22 10° SSE visible
29 Nov 10.3 18:10:12 10° WSW 18:11:58 12° SW 18:13:45 10° SSW visible
